Independence, KS

9:49 AM CDT on August 20, 2017 (GMT -0500)
Independence Municipal

Weather History for KIDP - May, 2014

Change the Weather History Date:

Wednesday, May 14, 2014

  Actual Average (KCFV) Record (KCFV)
Temperature  
Mean Temperature 52 °F -  
Max Temperature 60 °F 75 °F 91 °F (2013)
Min Temperature 42 °F 54 °F 42 °F (2000)
Degree Days  
Heating Degree Days 13    
Growing Degree Days 2 (Base 50)    
Moisture  
Dew Point 37 °F    
Average Humidity 56    
Maximum Humidity 87    
Minimum Humidity 31    
Precipitation  
Precipitation 0.00 in - - ()
Sea Level Pressure  
Sea Level Pressure 30.22 in    
Wind  
Wind Speed 6 mph (North)    
Max Wind Speed 18 mph    
Max Gust Speed 28 mph    
Visibility 10 miles    
Events      
Averages and records for this station are not official NWS values.
T = Trace of Precipitation, MM = Missing Value Source: NWS Daily Summary

Daily Weather History Graph

Daily Weather History Graph

Search for Another Location

Airport or City:

Trip Planner

Search our weather history database for the weather conditions in past years. The results will help you decide how hot, cold, wet, or windy it might be!

Date:

Astronomy

May. 14, 2014 Rise Set
Actual Time 6:15 AM CDT 8:23 PM CDT
Civil Twilight 5:46 AM CDT 8:52 PM CDT
Nautical Twilight 5:11 AM CDT 9:28 PM CDT
Astronomical Twilight 4:32 AM CDT 10:07 PM CDT
Moon 8:31 PM CDT (5/14) 6:13 AM CDT (5/14)
Length of Visible Light 15h 06m
Length of Day
14h 08m
Full, 100% of the Moon is Illuminated
May 14
Full
May 14
Full
May 21
Last Quarter
May 28
New
Jun 5
First Quarter

Hourly Weather History & Observations

Time (CDT) Temp. Windchill Dew Point Humidity Pressure Visibility Wind Dir Wind Speed Gust Speed Precip Events Conditions
12:15 AM 51.8 °F - 41.0 °F 67% 30.27 in 10.0 mi North 4.6 mph - N/A   Clear
12:35 AM 51.8 °F - 41.0 °F 67% 30.27 in 10.0 mi North 3.5 mph - N/A   Clear
1:15 AM 50.0 °F - 41.0 °F 71% 30.26 in 10.0 mi North 5.8 mph - N/A   Clear
1:35 AM 50.0 °F - 41.0 °F 71% 30.25 in 10.0 mi North 5.8 mph - N/A   Clear
1:55 AM 50.0 °F - 41.0 °F 71% 30.24 in 10.0 mi North 4.6 mph - N/A   Clear
2:15 AM 50.0 °F - 41.0 °F 71% 30.24 in 10.0 mi North 4.6 mph - N/A   Clear
2:35 AM 50.0 °F - 41.0 °F 71% 30.25 in 10.0 mi North 3.5 mph - N/A   Clear
2:55 AM 50.0 °F - 41.0 °F 71% 30.24 in 10.0 mi Calm Calm - N/A   Mostly Cloudy
3:15 AM 50.0 °F - 41.0 °F 71% 30.24 in 10.0 mi North 3.5 mph - N/A   Mostly Cloudy
3:35 AM 50.0 °F - 41.0 °F 71% 30.23 in 10.0 mi North 4.6 mph - N/A   Scattered Clouds
3:55 AM 50.0 °F - 42.8 °F 76% 30.23 in 10.0 mi North 3.5 mph - N/A   Mostly Cloudy
4:15 AM 50.0 °F - 41.0 °F 71% 30.23 in 10.0 mi North 3.5 mph - N/A   Mostly Cloudy
4:35 AM 50.0 °F - 42.8 °F 76% 30.23 in 10.0 mi NNW 5.8 mph - N/A   Overcast
4:55 AM 50.0 °F - 42.8 °F 76% 30.23 in 10.0 mi North 4.6 mph - N/A   Mostly Cloudy
5:15 AM 50.0 °F - 42.8 °F 76% 30.23 in 10.0 mi North 4.6 mph - N/A   Clear
5:35 AM 50.0 °F - 42.8 °F 76% 30.24 in 10.0 mi North 4.6 mph - N/A   Scattered Clouds
6:15 AM 50.0 °F - 42.8 °F 76% 30.26 in 10.0 mi NNW 3.5 mph - N/A   Scattered Clouds
6:35 AM 50.0 °F - 42.8 °F 76% 30.26 in 10.0 mi North 4.6 mph - N/A   Clear
6:55 AM 50.0 °F - 44.6 °F 82% 30.27 in 10.0 mi NNW 3.5 mph - N/A   Clear
7:15 AM 48.2 °F - 44.6 °F 87% 30.27 in 10.0 mi NNW 4.6 mph - N/A   Clear
7:35 AM 50.0 °F - 44.6 °F 82% 30.27 in 10.0 mi North 5.8 mph - N/A   Clear
7:55 AM 50.0 °F - 42.8 °F 76% 30.25 in 10.0 mi North 6.9 mph - N/A   Clear
8:15 AM 50.0 °F - 42.8 °F 76% 30.25 in 10.0 mi North 8.1 mph - N/A   Clear
8:35 AM 51.8 °F - 41.0 °F 67% 30.26 in 10.0 mi North 6.9 mph - N/A   Clear
8:55 AM 51.8 °F - 41.0 °F 67% 30.27 in 10.0 mi NNE 8.1 mph - N/A   Clear
9:15 AM 51.8 °F - 42.8 °F 71% 30.27 in 10.0 mi North 8.1 mph - N/A   Clear
9:35 AM 53.6 °F - 42.8 °F 67% 30.26 in 10.0 mi North 8.1 mph - N/A   Clear
9:55 AM 53.6 °F - 41.0 °F 62% 30.26 in 10.0 mi North 6.9 mph - N/A   Clear
10:35 AM 55.4 °F - 42.8 °F 63% 30.26 in 10.0 mi North 8.1 mph - N/A   Clear
10:55 AM 57.2 °F - 39.2 °F 51% 30.26 in 10.0 mi North 10.4 mph - N/A   Clear
11:15 AM 59.0 °F - 35.6 °F 42% 30.26 in 10.0 mi NNE 13.8 mph 18.4 mph N/A   Clear
11:55 AM 59.0 °F - 32.0 °F 36% 30.26 in 10.0 mi North 17.3 mph 23.0 mph N/A   Scattered Clouds
12:15 PM 60.8 °F - 32.0 °F 34% 30.25 in 10.0 mi NNE 18.4 mph 23.0 mph N/A   Scattered Clouds
12:35 PM 60.8 °F - 32.0 °F 34% 30.24 in 10.0 mi NNE 17.3 mph 27.6 mph N/A   Clear
12:55 PM 60.8 °F - 30.2 °F 31% 30.24 in 10.0 mi North 16.1 mph 24.2 mph N/A   Scattered Clouds
1:15 PM 59.0 °F - 30.2 °F 34% 30.24 in 10.0 mi North 12.7 mph 20.7 mph N/A   Scattered Clouds
1:35 PM 59.0 °F - 30.2 °F 34% 30.23 in 10.0 mi North 13.8 mph - N/A   Scattered Clouds
1:55 PM 59.0 °F - 32.0 °F 36% 30.23 in 10.0 mi North 12.7 mph 18.4 mph N/A   Scattered Clouds
2:15 PM 59.0 °F - 30.2 °F 34% 30.23 in 10.0 mi NNE 12.7 mph 16.1 mph N/A   Scattered Clouds
2:35 PM 59.0 °F - 30.2 °F 34% 30.23 in 10.0 mi NNE 11.5 mph 19.6 mph N/A   Scattered Clouds
3:15 PM 60.8 °F - 30.2 °F 31% 30.22 in 10.0 mi North 13.8 mph 17.3 mph N/A   Scattered Clouds
3:35 PM 60.8 °F - 30.2 °F 31% 30.22 in 10.0 mi North 10.4 mph 16.1 mph N/A   Scattered Clouds
3:55 PM 60.8 °F - 30.2 °F 31% 30.21 in 10.0 mi NNE 12.7 mph 17.3 mph N/A   Scattered Clouds
4:15 PM 60.8 °F - 30.2 °F 31% 30.20 in 10.0 mi NE 9.2 mph 17.3 mph N/A   Clear
4:35 PM 60.8 °F - 30.2 °F 31% 30.19 in 10.0 mi NNE 8.1 mph - N/A   Clear
4:55 PM 60.8 °F - 30.2 °F 31% 30.19 in 10.0 mi ENE 6.9 mph - N/A   Clear
5:15 PM 60.8 °F - 30.2 °F 31% 30.19 in 10.0 mi NW 4.6 mph - N/A   Clear
5:35 PM 60.8 °F - 30.2 °F 31% 30.18 in 10.0 mi Calm Calm - N/A   Clear
5:55 PM 60.8 °F - 30.2 °F 31% 30.17 in 10.0 mi NE 4.6 mph - N/A   Clear
6:15 PM 60.8 °F - 30.2 °F 31% 30.17 in 10.0 mi North 3.5 mph - N/A   Clear
6:35 PM 60.8 °F - 30.2 °F 31% 30.16 in 10.0 mi Calm Calm - N/A   Clear
6:55 PM 60.8 °F - 30.2 °F 31% 30.16 in 10.0 mi Calm Calm - N/A   Clear
7:15 PM 60.8 °F - 30.2 °F 31% 30.16 in 10.0 mi Calm Calm - N/A   Clear
7:35 PM 59.0 °F - 33.8 °F 39% 30.16 in 10.0 mi Calm Calm - N/A   Clear
7:55 PM 59.0 °F - 32.0 °F 36% 30.16 in 10.0 mi Calm Calm - N/A   Clear
8:15 PM 57.2 °F - 33.8 °F 41% 30.17 in 10.0 mi Calm Calm - N/A   Clear
8:35 PM 55.4 °F - 35.6 °F 47% 30.17 in 10.0 mi SSW 3.5 mph - N/A   Clear
8:55 PM 53.6 °F - 35.6 °F 51% 30.17 in 10.0 mi Calm Calm - N/A   Clear
9:15 PM 51.8 °F - 35.6 °F 54% 30.17 in 10.0 mi South 5.8 mph - N/A   Clear
9:35 PM 50.0 °F - 35.6 °F 58% 30.17 in 10.0 mi South 4.6 mph - N/A   Clear
9:55 PM 46.4 °F 43.5 °F 37.4 °F 71% 30.17 in 10.0 mi South 5.8 mph - N/A   Clear
10:15 PM 46.4 °F 43.5 °F 37.4 °F 71% 30.18 in 10.0 mi SSE 5.8 mph - N/A   Clear
10:35 PM 46.4 °F 43.5 °F 35.6 °F 66% 30.17 in 10.0 mi SSE 5.8 mph - N/A   Clear
11:15 PM 44.6 °F 41.4 °F 37.4 °F 76% 30.17 in 10.0 mi South 5.8 mph - N/A   Clear
11:35 PM 44.6 °F 40.7 °F 35.6 °F 71% 30.17 in 10.0 mi South 6.9 mph - N/A   Clear
11:55 PM 42.8 °F 38.6 °F 35.6 °F 76% 30.16 in 10.0 mi South 6.9 mph - N/A   Scattered Clouds